| time (UTC) | temp F | wind direction | speed MPH | gust MPH | rain 1hr in | rain 24hr in | rain mn in | humidity % | barometer mb |
| 20260504020537 | 58 | 241 | 2.0 | 7.0 | 0.00 | 0.00 | 0.00 | 74 | 1033.0 |
| 20260504020049 | 58 | 36 | 4.0 | 8.0 | 0.00 | 0.00 | 0.00 | 74 | 1033.1 |
| 20260504015539 | 58 | 240 | 4.0 | 9.0 | 0.00 | 0.00 | 0.00 | 74 | 1033.1 |
| 20260504015039 | 58 | 238 | 3.0 | 9.0 | 0.00 | 0.00 | 0.00 | 75 | 1033.1 |
| 20260504014546 | 58 | 294 | 4.0 | 9.0 | 0.00 | 0.00 | 0.00 | 74 | 1033.1 |
| 20260504014039 | 58 | 274 | 2.0 | 9.0 | 0.00 | 0.00 | 0.00 | 74 | 1033.0 |
| 20260504013538 | 58 | 296 | 2.0 | 10.0 | 0.00 | 0.00 | 0.00 | 74 | 1033.0 |
| 20260504013101 | 58 | 223 | 4.0 | 10.0 | 0.00 | 0.00 | 0.00 | 75 | 1033.1 |
| 20260504012538 | 58 | 232 | 2.0 | 8.0 | 0.00 | 0.00 | 0.00 | 75 | 1033.1 |
| 20260504012039 | 58 | 225 | 4.0 | 8.0 | 0.00 | 0.00 | 0.00 | 74 | 1033.1 |
| 20260504011542 | 58 | 242 | 2.0 | 6.0 | 0.00 | 0.00 | 0.00 | 75 | 1033.1 |
| 20260504011037 | 58 | 275 | 2.0 | 7.0 | 0.00 | 0.00 | 0.00 | 74 | 1033.2 |
| 20260504010538 | 58 | 246 | 3.0 | 7.0 | 0.00 | 0.00 | 0.00 | 73 | 1033.4 |
| 20260504010050 | 58 | 279 | 2.0 | 4.0 | 0.00 | 0.00 | 0.00 | 74 | 1033.5 |
| 20260504005541 | 59 | 268 | 2.0 | 9.0 | 0.00 | 0.00 | 0.00 | 74 | 1033.5 |
| 20260504005039 | 58 | 71 | 2.0 | 9.0 | 0.00 | 0.00 | 0.00 | 74 | 1033.5 |
| 20260504004548 | 58 | 244 | 5.0 | 9.0 | 0.00 | 0.00 | 0.00 | 72 | 1033.6 |
| 20260504004038 | 59 | 271 | 4.0 | 7.0 | 0.00 | 0.00 | 0.00 | 73 | 1033.6 |
| 20260504003538 | 59 | 67 | 1.0 | 7.0 | 0.00 | 0.00 | 0.00 | 75 | 1033.7 |
| 20260504003047 | 58 | 273 | 3.0 | 7.0 | 0.00 | 0.00 | 0.00 | 73 | 1033.6 |
| 20260504002538 | 59 | 51 | 2.0 | 7.0 | 0.00 | 0.00 | 0.00 | 73 | 1033.7 |
| 20260504002038 | 59 | 0 | 1.0 | 3.0 | 0.00 | 0.00 | 0.00 | 74 | 1033.6 |
| 20260504001548 | 59 | 231 | 1.0 | 6.0 | 0.00 | 0.00 | 0.00 | 74 | 1033.8 |
| 20260504001041 | 59 | 242 | 1.0 | 6.0 | 0.00 | 0.00 | 0.00 | 75 | 1033.8 |
| 20260504000538 | 59 | 266 | 0.0 | 6.0 | 0.00 | 0.00 | 0.00 | 75 | 1033.9 |
| 20260504000045 | 58 | 247 | 3.0 | 6.0 | 0.00 | 0.00 | 0.00 | 75 | 1034.0 |
| 20260503235538 | 58 | 249 | 2.0 | 7.0 | 0.00 | 0.00 | 0.00 | 74 | 1034.0 |
| 20260503235039 | 58 | 248 | 3.0 | 7.0 | 0.00 | 0.00 | 0.00 | 74 | 1034.0 |
| 20260503234548 | 59 | 72 | 2.0 | 6.0 | 0.00 | 0.00 | 0.00 | 74 | 1034.0 |
| 20260503234039 | 59 | 321 | 2.0 | 5.0 | 0.00 | 0.00 | 0.00 | 73 | 1034.0 |
| 20260503233539 | 59 | 246 | 1.0 | 5.0 | 0.00 | 0.00 | 0.00 | 74 | 1034.0 |
| 20260503233048 | 59 | 254 | 1.0 | 7.0 | 0.00 | 0.00 | 0.00 | 74 | 1034.1 |
| 20260503232541 | 59 | 57 | 2.0 | 7.0 | 0.00 | 0.00 | 0.00 | 74 | 1034.1 |
| 20260503232038 | 59 | 275 | 2.0 | 7.0 | 0.00 | 0.00 | 0.00 | 73 | 1034.1 |
| 20260503231547 | 59 | 64 | 0.0 | 5.0 | 0.00 | 0.00 | 0.00 | 74 | 1034.2 |
| 20260503231039 | 59 | 40 | 1.0 | 4.0 | 0.00 | 0.00 | 0.00 | 74 | 1034.1 |
| 20260503230542 | 59 | 225 | 0.0 | 6.0 | 0.00 | 0.00 | 0.00 | 74 | 1034.1 |
| 20260503230051 | 59 | 31 | 0.0 | 6.0 | 0.00 | 0.00 | 0.00 | 74 | 1034.2 |
| 20260503225538 | 59 | 260 | 1.0 | 5.0 | 0.00 | 0.00 | 0.00 | 73 | 1034.2 |
| 20260503225038 | 58 | 62 | 2.0 | 7.0 | 0.00 | 0.00 | 0.00 | 73 | 1034.2 |
| 20260503224543 | 58 | 223 | 2.0 | 7.0 | 0.00 | 0.00 | 0.00 | 73 | 1034.1 |
| 20260503224038 | 58 | 294 | 1.0 | 5.0 | 0.00 | 0.00 | 0.00 | 74 | 1034.1 |
| 20260503223538 | 58 | 79 | 2.0 | 6.0 | 0.00 | 0.00 | 0.00 | 74 | 1034.2 |
| 20260503223042 | 58 | 234 | 2.0 | 6.0 | 0.00 | 0.00 | 0.00 | 74 | 1034.1 |
| 20260503222539 | 58 | 343 | 1.0 | 5.0 | 0.00 | 0.00 | 0.00 | 75 | 1034.2 |
| 20260503222037 | 58 | 73 | 1.0 | 3.0 | 0.00 | 0.00 | 0.00 | 76 | 1034.2 |
| 20260503221558 | 58 | 255 | 1.0 | 3.0 | 0.00 | 0.00 | 0.00 | 75 | 1034.2 |
| 20260503221039 | 58 | 175 | 1.0 | 3.0 | 0.00 | 0.00 | 0.00 | 77 | 1034.2 |
| 20260503220539 | 58 | 329 | 1.0 | 7.0 | 0.00 | 0.00 | 0.00 | 76 | 1034.3 |
| 20260503220050 | 57 | 0 | 1.0 | 7.0 | 0.00 | 0.00 | 0.00 | 77 | 1034.2 |
| 20260503215538 | 57 | 37 | 1.0 | 4.0 | 0.00 | 0.00 | 0.00 | 78 | 1034.3 |
| 20260503215038 | 57 | 43 | 1.0 | 3.0 | 0.00 | 0.00 | 0.00 | 79 | 1034.4 |
| 20260503214545 | 57 | 232 | 1.0 | 3.0 | 0.00 | 0.00 | 0.00 | 81 | 1034.2 |
| 20260503214038 | 57 | 232 | 0.0 | 2.0 | 0.00 | 0.00 | 0.00 | 83 | 1034.3 |
| 20260503213539 | 56 | 0 | 0.0 | 3.0 | 0.00 | 0.00 | 0.00 | 83 | 1034.2 |
| 20260503213050 | 56 | 232 | 1.0 | 3.0 | 0.00 | 0.00 | 0.00 | 83 | 1034.3 |
| 20260503212538 | 56 | 238 | 1.0 | 3.0 | 0.00 | 0.00 | 0.00 | 84 | 1034.3 |
| 20260503212037 | 56 | 238 | 0.0 | 4.0 | 0.00 | 0.00 | 0.00 | 85 | 1034.4 |
| 20260503211550 | 55 | 238 | 1.0 | 4.0 | 0.00 | 0.00 | 0.00 | 86 | 1034.3 |
| 20260503211038 | 55 | 238 | 0.0 | 2.0 | 0.00 | 0.00 | 0.00 | 87 | 1034.3 |
| 20260503210539 | 55 | 238 | 1.0 | 2.0 | 0.00 | 0.00 | 0.00 | 87 | 1034.4 |
| 20260503210049 | 55 | 0 | 0.0 | 2.0 | 0.00 | 0.00 | 0.00 | 88 | 1034.3 |
| 20260503205539 | 54 | 0 | 0.0 | 4.0 | 0.00 | 0.00 | 0.00 | 89 | 1034.3 |
| 20260503205039 | 54 | 0 | 1.0 | 4.0 | 0.00 | 0.00 | 0.00 | 89 | 1034.4 |
| 20260503204603 | 54 | 244 | 1.0 | 2.0 | 0.00 | 0.00 | 0.00 | 89 | 1034.4 |
| 20260503204038 | 54 | 0 | 0.0 | 2.0 | 0.00 | 0.00 | 0.00 | 90 | 1034.3 |
| 20260503203536 | 53 | 80 | 0.0 | 2.0 | 0.00 | 0.00 | 0.00 | 90 | 1034.2 |
| 20260503203052 | 53 | 80 | 0.0 | 2.0 | 0.00 | 0.00 | 0.00 | 90 | 1034.2 |
| 20260503202537 | 53 | 0 | 0.0 | 2.0 | 0.00 | 0.00 | 0.00 | 91 | 1034.2 |
| 20260503202036 | 53 | 79 | 0.0 | 2.0 | 0.00 | 0.00 | 0.00 | 91 | 1034.1 |
| 20260503201545 | 53 | 79 | 0.0 | 1.0 | 0.00 | 0.00 | 0.00 | 91 | 1034.1 |
| 20260503201038 | 53 | 0 | 0.0 | 1.0 | 0.00 | 0.00 | 0.00 | 91 | 1034.1 |
| 20260503200536 | 52 | 0 | 0.0 | 1.0 | 0.00 | 0.00 | 0.00 | 91 | 1034.0 |
| 20260503200044 | 52 | 0 | 0.0 | 1.0 | 0.00 | 0.00 | 0.00 | 91 | 1034.0 |
| 20260503195536 | 52 | 0 | 0.0 | 2.0 | 0.00 | 0.00 | 0.00 | 92 | 1033.8 |
| 20260503195039 | 52 | 0 | 0.0 | 2.0 | 0.00 | 0.00 | 0.00 | 92 | 1034.0 |
| 20260503194555 | 52 | 76 | 0.0 | 3.0 | 0.00 | 0.00 | 0.00 | 92 | 1033.9 |
| 20260503194037 | 52 | 0 | 0.0 | 3.0 | 0.00 | 0.00 | 0.00 | 92 | 1033.9 |
| 20260503193536 | 52 | 75 | 0.0 | 2.0 | 0.00 | 0.00 | 0.00 | 92 | 1033.7 |
| 20260503193054 | 52 | 0 | 0.0 | 2.0 | 0.00 | 0.00 | 0.00 | 92 | 1033.7 |
| 20260503192536 | 52 | 85 | 0.0 | 1.0 | 0.00 | 0.00 | 0.00 | 92 | 1033.7 |
| 20260503192036 | 52 | 0 | 0.0 | 1.0 | 0.00 | 0.00 | 0.00 | 92 | 1033.6 |
| 20260503191606 | 52 | 0 | 0.0 | 1.0 | 0.00 | 0.00 | 0.00 | 92 | 1033.7 |
| 20260503191039 | 52 | 0 | 0.0 | 1.0 | 0.00 | 0.00 | 0.00 | 92 | 1033.6 |
| 20260503190537 | 52 | 85 | 0.0 | 4.0 | 0.00 | 0.00 | 0.00 | 92 | 1033.6 |
| 20260503190044 | 52 | 83 | 0.0 | 5.0 | 0.00 | 0.00 | 0.00 | 92 | 1033.6 |
| 20260503185536 | 52 | 74 | 3.0 | 5.0 | 0.00 | 0.00 | 0.00 | 93 | 1033.5 |
| 20260503185036 | 52 | 0 | 0.0 | 3.0 | 0.00 | 0.00 | 0.00 | 93 | 1033.6 |
| 20260503184552 | 51 | 37 | 0.0 | 2.0 | 0.00 | 0.00 | 0.00 | 93 | 1033.6 |
| 20260503184038 | 51 | 0 | 0.0 | 1.0 | 0.00 | 0.00 | 0.00 | 93 | 1033.5 |
| 20260503183535 | 51 | 0 | 0.0 | 1.0 | 0.00 | 0.00 | 0.00 | 93 | 1033.7 |
| 20260503183049 | 51 | 0 | 0.0 | 1.0 | 0.00 | 0.00 | 0.00 | 93 | 1033.6 |
| 20260503182536 | 51 | 0 | 0.0 | 1.0 | 0.00 | 0.00 | 0.00 | 93 | 1033.5 |
| 20260503182035 | 51 | 0 | 0.0 | 1.0 | 0.00 | 0.00 | 0.00 | 93 | 1033.4 |
| 20260503181552 | 51 | 0 | 0.0 | 1.0 | 0.00 | 0.00 | 0.00 | 93 | 1033.6 |
| 20260503181035 | 51 | 73 | 0.0 | 4.0 | 0.00 | 0.00 | 0.00 | 93 | 1033.6 |
| 20260503180538 | 52 | 73 | 0.0 | 4.0 | 0.00 | 0.00 | 0.00 | 94 | 1033.5 |
| 20260503180056 | 51 | 67 | 0.0 | 4.0 | 0.00 | 0.00 | 0.00 | 94 | 1033.4 |
| 20260503175538 | 51 | 79 | 0.0 | 2.0 | 0.00 | 0.00 | 0.00 | 94 | 1033.4 |
| 20260503175038 | 51 | 79 | 0.0 | 1.0 | 0.00 | 0.00 | 0.00 | 94 | 1033.4 |
| 20260503174554 | 51 | 145 | 0.0 | 1.0 | 0.00 | 0.00 | 0.00 | 94 | 1033.4 |
| 20260503174036 | 51 | 0 | 0.0 | 1.0 | 0.00 | 0.00 | 0.00 | 94 | 1033.4 |
| 20260503173536 | 51 | 0 | 0.0 | 1.0 | 0.00 | 0.00 | 0.00 | 94 | 1033.6 |
| 20260503173049 | 51 | 81 | 0.0 | 1.0 | 0.00 | 0.00 | 0.00 | 94 | 1033.5 |
| 20260503172535 | 51 | 0 | 0.0 | 1.0 | 0.00 | 0.00 | 0.00 | 94 | 1033.6 |
| 20260503172036 | 51 | 0 | 0.0 | 0.0 | 0.00 | 0.00 | 0.00 | 94 | 1033.5 |
| 20260503171556 | 51 | 0 | 0.0 | 0.0 | 0.00 | 0.00 | 0.00 | 94 | 1033.4 |
| 20260503171036 | 51 | 0 | 0.0 | 1.0 | 0.00 | 0.00 | 0.00 | 94 | 1033.5 |
| 20260503170536 | 51 | 0 | 0.0 | 2.0 | 0.00 | 0.00 | 0.00 | 94 | 1033.5 |
| 20260503160104 | 49 | 111 | 0.0 | 1.0 | 0.00 | 0.00 | 0.00 | 95 | 1033.6 |
| 20260503150536 | 49 | 0 | 0.0 | 0.0 | 0.00 | 0.00 | 0.00 | 95 | 1033.8 |
| 20260503131035 | 48 | 0 | 0.0 | 2.0 | 0.00 | 0.00 | 0.00 | 95 | 1034.1 |
| 20260503130535 | 48 | 228 | 0.0 | 1.0 | 0.00 | 0.00 | 0.00 | 95 | 1034.1 |
| 20260503110535 | 47 | 0 | 0.0 | 1.0 | 0.00 | 0.00 | 0.00 | 95 | 1033.5 |
| 20260503081543 | 46 | 0 | 0.0 | 0.0 | 0.00 | 0.00 | 0.00 | 94 | 1033.0 |
| 20260503081039 | 46 | 0 | 0.0 | 0.0 | 0.00 | 0.00 | 0.00 | 94 | 1032.8 |
| 20260503080539 | 46 | 0 | 0.0 | 0.0 | 0.00 | 0.00 | 0.00 | 94 | 1033.0 |
| 20260503072538 | 46 | 0 | 0.0 | 0.0 | 0.00 | 0.00 | 0.00 | 92 | 1032.9 |
| 20260503072041 | 47 | 0 | 0.0 | 0.0 | 0.00 | 0.00 | 0.00 | 92 | 1033.0 |
| 20260503071549 | 47 | 0 | 0.0 | 0.0 | 0.00 | 0.00 | 0.00 | 92 | 1032.8 |
| 20260503071038 | 47 | 0 | 0.0 | 0.0 | 0.00 | 0.00 | 0.00 | 92 | 1032.9 |
| 20260503070535 | 47 | 0 | 0.0 | 0.0 | 0.00 | 0.00 | 0.00 | 91 | 1032.8 |
| 20260503055039 | 52 | 0 | 0.0 | 0.0 | 0.00 | 0.00 | 0.00 | 86 | 1032.8 |
| 20260503054605 | 52 | 0 | 0.0 | 0.0 | 0.00 | 0.00 | 0.00 | 85 | 1032.8 |
| 20260503054038 | 53 | 0 | 0.0 | 0.0 | 0.00 | 0.00 | 0.00 | 85 | 1032.8 |
| 20260503053538 | 53 | 0 | 0.0 | 0.0 | 0.00 | 0.00 | 0.00 | 85 | 1032.8 |
| 20260503053053 | 53 | 0 | 0.0 | 1.0 | 0.00 | 0.00 | 0.00 | 85 | 1032.7 |
| 20260503052539 | 53 | 0 | 0.0 | 1.0 | 0.00 | 0.00 | 0.00 | 84 | 1032.8 |
| 20260503052038 | 54 | 237 | 0.0 | 1.0 | 0.00 | 0.00 | 0.00 | 83 | 1032.8 |
| 20260503051549 | 54 | 237 | 1.0 | 1.0 | 0.00 | 0.00 | 0.00 | 82 | 1032.7 |
| 20260503051038 | 55 | 237 | 1.0 | 1.0 | 0.00 | 0.00 | 0.00 | 81 | 1032.7 |
| 20260503050539 | 55 | 237 | 0.0 | 2.0 | 0.00 | 0.00 | 0.00 | 80 | 1032.8 |
| 20260503050048 | 56 | 237 | 1.0 | 2.0 | 0.00 | 0.00 | 0.00 | 79 | 1032.8 |
| 20260503045542 | 57 | 237 | 1.0 | 2.0 | 0.00 | 0.00 | 0.00 | 78 | 1032.8 |
| 20260503045039 | 58 | 237 | 2.0 | 2.0 | 0.00 | 0.00 | 0.00 | 78 | 1032.8 |
| 20260503044552 | 58 | 237 | 1.0 | 3.0 | 0.00 | 0.00 | 0.00 | 78 | 1032.8 |
| 20260503044040 | 58 | 237 | 1.0 | 3.0 | 0.00 | 0.00 | 0.00 | 77 | 1032.7 |
| 20260503043538 | 59 | 237 | 1.0 | 4.0 | 0.00 | 0.00 | 0.00 | 77 | 1032.7 |
| 20260503043053 | 59 | 237 | 2.0 | 4.0 | 0.00 | 0.00 | 0.00 | 77 | 1032.7 |
| 20260503042538 | 59 | 237 | 2.0 | 6.0 | 0.00 | 0.00 | 0.00 | 77 | 1032.7 |
| 20260503042038 | 59 | 237 | 3.0 | 6.0 | 0.00 | 0.00 | 0.00 | 76 | 1032.7 |
| 20260503041548 | 59 | 235 | 3.0 | 6.0 | 0.00 | 0.00 | 0.00 | 76 | 1032.6 |
| 20260503041041 | 59 | 236 | 4.0 | 8.0 | 0.00 | 0.00 | 0.00 | 76 | 1032.5 |
| 20260503040538 | 59 | 235 | 4.0 | 8.0 | 0.00 | 0.00 | 0.00 | 76 | 1032.5 |
| 20260503040054 | 59 | 267 | 4.0 | 8.0 | 0.00 | 0.00 | 0.00 | 75 | 1032.5 |
| 20260503035539 | 60 | 235 | 4.0 | 8.0 | 0.00 | 0.00 | 0.00 | 75 | 1032.5 |
| 20260503035039 | 60 | 229 | 4.0 | 7.0 | 0.00 | 0.00 | 0.00 | 74 | 1032.5 |
| 20260503034548 | 60 | 227 | 4.0 | 7.0 | 0.00 | 0.00 | 0.00 | 74 | 1032.5 |
| 20260503034038 | 60 | 223 | 4.0 | 8.0 | 0.00 | 0.00 | 0.00 | 74 | 1032.5 |
| 20260503033612 | 60 | 232 | 4.0 | 8.0 | 0.00 | 0.00 | 0.00 | 74 | 1032.4 |
| 20260503033046 | 60 | 242 | 4.0 | 9.0 | 0.00 | 0.00 | 0.00 | 74 | 1032.4 |
| 20260503032538 | 60 | 244 | 5.0 | 10.0 | 0.00 | 0.00 | 0.00 | 73 | 1032.3 |
| 20260503032038 | 61 | 270 | 6.0 | 10.0 | 0.00 | 0.00 | 0.00 | 72 | 1032.3 |
| 20260503031546 | 61 | 238 | 4.0 | 8.0 | 0.00 | 0.00 | 0.00 | 72 | 1032.4 |
| 20260503031039 | 62 | 234 | 4.0 | 8.0 | 0.00 | 0.00 | 0.00 | 74 | 1032.4 |
| 20260503030538 | 62 | 233 | 3.0 | 6.0 | 0.00 | 0.00 | 0.00 | 71 | 1032.3 |
| 20260503030043 | 62 | 239 | 2.0 | 7.0 | 0.00 | 0.00 | 0.00 | 69 | 1032.3 |
| 20260503025539 | 62 | 272 | 3.0 | 7.0 | 0.00 | 0.00 | 0.00 | 70 | 1032.4 |
| 20260503025039 | 62 | 254 | 3.0 | 6.0 | 0.00 | 0.00 | 0.00 | 69 | 1032.5 |
| 20260503024549 | 61 | 240 | 3.0 | 4.0 | 0.00 | 0.00 | 0.00 | 68 | 1032.4 |
| 20260503024041 | 61 | 260 | 2.0 | 4.0 | 0.00 | 0.00 | 0.00 | 68 | 1032.4 |
| 20260503023541 | 62 | 232 | 0.0 | 4.0 | 0.00 | 0.00 | 0.00 | 71 | 1032.5 |
| 20260503023054 | 61 | 230 | 1.0 | 4.0 | 0.00 | 0.00 | 0.00 | 71 | 1032.5 |
| 20260503022540 | 61 | 240 | 2.0 | 4.0 | 0.00 | 0.00 | 0.00 | 70 | 1032.6 |
| 20260503022040 | 61 | 0 | 2.0 | 4.0 | 0.00 | 0.00 | 0.00 | 70 | 1032.6 |
| 20260503021546 | 61 | 225 | 1.0 | 5.0 | 0.00 | 0.00 | 0.00 | 71 | 1032.5 |
| 20260503021040 | 60 | 225 | 1.0 | 5.0 | 0.00 | 0.00 | 0.00 | 71 | 1032.6 |